| time (UTC) | temp F | wind direction | speed knots | gust knots | rain 1hr in | rain 24hr in | rain mn in | humidity % | barometer mb |
| 20260505093034 | 47 | 346 | 0.9 | 5.2 | 0.00 | 0.00 | 0.00 | 60 | 938.4 |
| 20260505091510 | 48 | 40 | 1.7 | 5.2 | 0.00 | 0.00 | 0.00 | 58 | 938.4 |
| 20260505090048 | 49 | 15 | 1.7 | 7.0 | 0.00 | 0.00 | 0.00 | 55 | 938.4 |
| 20260505084525 | 50 | 49 | 1.7 | 7.8 | 0.00 | 0.00 | 0.00 | 51 | 938.3 |
| 20260505083013 | 50 | 85 | 5.2 | 9.6 | 0.00 | 0.00 | 0.00 | 50 | 938.3 |
| 20260505081543 | 50 | 355 | 1.7 | 7.8 | 0.00 | 0.00 | 0.00 | 50 | 938.3 |
| 20260505080018 | 51 | 27 | 4.3 | 8.7 | 0.00 | 0.00 | 0.00 | 48 | 938.2 |
| 20260505074556 | 50 | 27 | 2.6 | 8.7 | 0.00 | 0.00 | 0.00 | 51 | 938.2 |
| 20260505073031 | 49 | 342 | 4.3 | 9.6 | 0.00 | 0.00 | 0.00 | 54 | 938.3 |
| 20260505071527 | 51 | 339 | 1.7 | 2.6 | 0.00 | 0.00 | 0.00 | 51 | 938.2 |
| 20260505070048 | 51 | 55 | 0.9 | 3.5 | 0.00 | 0.00 | 0.00 | 53 | 938.1 |
| 20260505064526 | 51 | 33 | 0.9 | 3.5 | 0.00 | 0.00 | 0.00 | 51 | 938.1 |
| 20260505063100 | 53 | 206 | 0.0 | 0.0 | 0.00 | 0.00 | 0.00 | 45 | 937.9 |
| 20260505063007 | 53 | 206 | 0.0 | 0.0 | 0.00 | 0.00 | 0.00 | 44 | 937.9 |
| 20260505061542 | 53 | 206 | 0.0 | 1.7 | 0.00 | 0.00 | 0.00 | 46 | 938.0 |
| 20260505060035 | 53 | 195 | 3.5 | 6.1 | 0.00 | 0.00 | 0.00 | 47 | 938.0 |
| 20260505054549 | 53 | 180 | 1.7 | 5.2 | 0.00 | 0.00 | 0.00 | 48 | 938.0 |
| 20260505053030 | 53 | 153 | 5.2 | 10.4 | 0.00 | 0.00 | 0.00 | 47 | 938.1 |
| 20260505051512 | 54 | 151 | 5.2 | 8.7 | 0.00 | 0.00 | 0.00 | 47 | 938.1 |
| 20260505041535 | 56 | 103 | 4.3 | 8.7 | 0.00 | 0.00 | 0.00 | 41 | 937.7 |
| 20260505040013 | 55 | 338 | 0.0 | 2.6 | 0.00 | 0.00 | 0.00 | 40 | 937.6 |
| 20260505034553 | 57 | 65 | 0.9 | 6.1 | 0.00 | 0.00 | 0.00 | 44 | 937.3 |
| 20260505033027 | 58 | 92 | 2.6 | 8.7 | 0.00 | 0.00 | 0.00 | 35 | 936.8 |
| 20260505031506 | 58 | 66 | 2.6 | 7.0 | 0.00 | 0.00 | 0.00 | 32 | 936.7 |
| 20260505030042 | 57 | 24 | 0.0 | 2.6 | 0.00 | 0.00 | 0.00 | 35 | 936.5 |
| 20260505024521 | 57 | 30 | 0.9 | 7.0 | 0.00 | 0.00 | 0.00 | 36 | 936.3 |
| 20260505023055 | 57 | 18 | 2.6 | 7.8 | 0.00 | 0.00 | 0.00 | 36 | 936.2 |
| 20260505021545 | 58 | 15 | 2.6 | 9.6 | 0.00 | 0.00 | 0.00 | 36 | 936.0 |
| 20260505020049 | 58 | 12 | 4.3 | 12.2 | 0.00 | 0.00 | 0.00 | 36 | 935.9 |
| 20260505014547 | 59 | 34 | 4.3 | 14.8 | 0.00 | 0.00 | 0.00 | 35 | 935.8 |
| 20260505013101 | 62 | 360 | 2.6 | 8.7 | 0.00 | 0.00 | 0.00 | 30 | 935.8 |
| 20260505011551 | 64 | 329 | 0.0 | 8.7 | 0.00 | 0.00 | 0.00 | 22 | 935.9 |
| 20260505004555 | 67 | 289 | 2.6 | 10.4 | 0.00 | 0.00 | 0.00 | 20 | 936.0 |
| 20260505003056 | 67 | 313 | 2.6 | 7.0 | 0.00 | 0.00 | 0.00 | 21 | 936.0 |
| 20260505001554 | 67 | 305 | 4.3 | 12.2 | 0.00 | 0.00 | 0.00 | 21 | 936.2 |
| 20260505000108 | 68 | 296 | 4.3 | 10.4 | 0.00 | 0.00 | 0.00 | 19 | 936.1 |
| 20260505000002 | 68 | 263 | 3.5 | 10.4 | 0.00 | 0.00 | 0.00 | 20 | 936.1 |
| 20260504234508 | 67 | 269 | 7.0 | 13.0 | 0.00 | 0.00 | 0.00 | 19 | 936.2 |
| 20260504233010 | 68 | 261 | 9.6 | 13.9 | 0.00 | 0.00 | 0.00 | 19 | 936.2 |
| 20260504231558 | 68 | 271 | 7.8 | 14.8 | 0.00 | 0.00 | 0.00 | 17 | 936.3 |
| 20260504230059 | 67 | 305 | 6.1 | 13.0 | 0.00 | 0.00 | 0.00 | 17 | 936.2 |
| 20260504224530 | 67 | 250 | 7.8 | 13.0 | 0.00 | 0.00 | 0.00 | 17 | 936.5 |
| 20260504223013 | 67 | 219 | 4.3 | 13.0 | 0.00 | 0.00 | 0.00 | 17 | 936.5 |
| 20260504221548 | 68 | 277 | 7.0 | 13.9 | 0.00 | 0.00 | 0.00 | 19 | 936.6 |
| 20260504220038 | 68 | 312 | 5.2 | 14.8 | 0.00 | 0.00 | 0.00 | 19 | 936.8 |
| 20260504214510 | 68 | 273 | 7.8 | 13.9 | 0.00 | 0.00 | 0.00 | 19 | 936.9 |
| 20260504213042 | 67 | 298 | 3.5 | 15.6 | 0.00 | 0.00 | 0.00 | 19 | 937.2 |
| 20260504211528 | 68 | 265 | 7.0 | 13.0 | 0.00 | 0.00 | 0.00 | 20 | 937.2 |
| 20260504210058 | 67 | 328 | 7.0 | 12.2 | 0.00 | 0.00 | 0.00 | 21 | 937.4 |
| 20260504204535 | 67 | 254 | 4.3 | 14.8 | 0.00 | 0.00 | 0.00 | 22 | 937.5 |
| 20260504203012 | 67 | 302 | 7.0 | 14.8 | 0.00 | 0.00 | 0.00 | 22 | 937.6 |
| 20260504201601 | 67 | 219 | 8.7 | 14.8 | 0.00 | 0.00 | 0.00 | 25 | 937.7 |
| 20260504200029 | 66 | 265 | 4.3 | 13.0 | 0.00 | 0.00 | 0.00 | 27 | 937.8 |
| 20260504194506 | 66 | 269 | 6.1 | 10.4 | 0.00 | 0.00 | 0.00 | 27 | 937.9 |
| 20260504193043 | 65 | 211 | 4.3 | 11.3 | 0.00 | 0.00 | 0.00 | 27 | 938.1 |
| 20260504191523 | 66 | 276 | 7.8 | 12.2 | 0.00 | 0.00 | 0.00 | 27 | 938.4 |
| 20260504190115 | 66 | 251 | 7.8 | 12.2 | 0.00 | 0.00 | 0.00 | 28 | 938.5 |
| 20260504184535 | 65 | 262 | 6.1 | 11.3 | 0.00 | 0.00 | 0.00 | 26 | 938.7 |
| 20260504183014 | 65 | 305 | 2.6 | 10.4 | 0.00 | 0.00 | 0.00 | 28 | 938.8 |
| 20260504181548 | 63 | 246 | 2.6 | 10.4 | 0.00 | 0.00 | 0.00 | 27 | 938.9 |
| 20260504180026 | 64 | 280 | 2.6 | 12.2 | 0.00 | 0.00 | 0.00 | 28 | 939.1 |
| 20260504174507 | 62 | 157 | 5.2 | 9.6 | 0.00 | 0.00 | 0.00 | 27 | 939.4 |
| 20260504173040 | 62 | 151 | 3.5 | 9.6 | 0.00 | 0.00 | 0.00 | 28 | 939.4 |
| 20260504171520 | 61 | 149 | 4.3 | 7.8 | 0.00 | 0.00 | 0.00 | 28 | 939.5 |
| 20260504140110 | 55 | 169 | 0.9 | 2.6 | 0.00 | 0.00 | 0.00 | 33 | 939.7 |